Location: Fisheating Creek Campgrounds
(26.9333°N, 81.3167°W)
Time: 04:34:15
(UTC-05:00)

Cosmos 2221 Rocket - Visible Passes

Search period start: 25 February 2018 00:00
Search period end: 07 March 2018 00:00
Orbit: 619 x 649 km, 82.5° (Epoch: 24 February)

Date Brightness Start Highest point End Pass type
(mag) Time Alt. Az. Time Alt. Az. Time Alt. Az.
26 Feb 6.9 05:15:47 10° ESE 05:18:10 14° E 05:20:32 10° NE visible
26 Feb 7.1 18:50:05 10° WNW 18:52:00 13° W 18:53:54 10° WSW visible
27 Feb 5.5 05:36:09 10° SSE 05:40:08 33° E 05:44:07 10° NNE visible
28 Feb 3.7 05:57:47 10° S 06:02:13 83° E 06:06:39 10° N visible
01 Mar 7.0 04:45:33 10° ESE 04:46:41 11° E 04:47:49 10° ENE visible
01 Mar 4.0 06:20:16 10° SSW 06:24:25 39° W 06:28:33 10° NNW visible
02 Mar 5.8 05:04:57 10° SSE 05:08:38 26° E 05:12:18 10° NE visible
03 Mar 4.0 05:26:18 10° S 05:30:41 64° E 05:35:02 10° NNE visible
04 Mar 3.7 05:48:32 10° SSW 05:52:50 51° W 05:57:08 10° N visible
05 Mar 6.1 04:33:53 10° SE 04:37:07 20° E 04:40:22 10° NE visible
05 Mar 4.8 06:11:43 10° SW 06:15:06 21° W 06:18:29 10° NNW visible
06 Mar 4.5 04:54:54 10° SSE 04:59:09 48° E 05:03:23 10° NNE visible
